スミルノワ-チェルヌイフ彗星

74P/Smirnova-Chernykh (2018)

English version
Home page
Updated on August 6, 2017

---------------------------------------------------------------------

・ プロフィール

・ 写真集

・ 軌道要素

Epoch 2018 Feb. 11.0 TT = JDT 2458160.5
T 2018 Jan. 26.70761 TT                                 MPCW
q   3.5364633            (2000.0)            P               Q
n   0.11627488     Peri.   87.13557     -0.95561948     -0.27210081
a   4.1573071      Node    77.05558     +0.20253241     -0.88515165
e   0.1493380      Incl.    6.65391     +0.21394400     -0.37744896
P   8.48
From 3570 observations 1981 Sept. 27-2017 Jan. 9, mean residual 0".7.
     Nongravitational parameters Y1 = +0.01, Y2 = -0.0073.

・ 星図

・ 光度変化

        m1 = 2.0 + 5 logΔ + 20.0 log r

---------------------------------------------------------------------

軌道要素はM.P.E.C. 2017-A77に掲載されたものです。
星図はステラナビゲータ Ver.8 (アストロアーツ) で作成したものです。
光度グラフはComet for Windowsで作成したものです。

---------------------------------------------------------------------

Copyright(C) Seiichi Yoshida (comet@aerith.net). All rights reserved.